Weather History for KDFW - January, 2015

Change the Weather History Date:

Sunday, January 4, 2015

  Actual Average Record
Temperature  
Mean Temperature 35 °F 45 °F  
Max Temperature 42 °F 56 °F 81 °F (1921)
Min Temperature 28 °F 35 °F 4 °F (1947)
Degree Days  
Heating Degree Days 30 20  
Month to date heating degree days 107 80  
Since 1 July heating degree days 981 992  
Cooling Degree Days 0 0  
Month to date cooling degree days 0 0  
Year to date cooling degree days 0 0  
Moisture  
Dew Point 22 °F    
Average Humidity 62    
Maximum Humidity 79    
Minimum Humidity 44    
Precipitation  
Precipitation 0.00 in 0.07 in 3.15 in (1998)
Month to date precipitation 1.29 0.26  
Year to date precipitation 1.29 0.26  
Snow  
Snow 0.00 in 0.00 in 1.00 in (1950)
Month to date snowfall T 0.0  
Since 1 July snowfall T 0.3  
Snow Depth 0.00 in    
Sea Level Pressure  
Sea Level Pressure 30.48 in    
Wind  
Wind Speed 16 mph (NNW)    
Max Wind Speed 30 mph    
Max Gust Speed 35 mph    
Visibility 10 miles    
Events      
T = Trace of Precipitation, MM = Missing Value Source: NWS Daily Summary

Daily Weather History Graph

Daily Weather History Graph

Search for Another Location

Airport or City:

Trip Planner

Search our weather history database for the weather conditions in past years. The results will help you decide how hot, cold, wet, or windy it might be!

Date:

Astronomy

Jan. 04, 2015 Rise Set
Actual Time 7:31 AM CST 5:34 PM CST
Civil Twilight 7:04 AM CST 6:02 PM CST
Nautical Twilight 6:33 AM CST 6:32 PM CST
Astronomical Twilight 6:03 AM CST 7:02 PM CST
Moon 5:32 PM CST 6:47 AM CST
Length of Visible Light 10h 57m
Length of Day
10h 03m
Full, 100% of the Moon is Illuminated
Jan 4
Full
Jan 4
Full
Jan 13
Last Quarter
Jan 20
New
Jan 26
First Quarter

Hourly Weather History & Observations

Time (CST) Temp. Windchill Dew Point Humidity Pressure Visibility Wind Dir Wind Speed Gust Speed Precip Events Conditions
12:53 AM 41.0 °F 33.9 °F 33.1 °F 73% 30.14 in 10.0 mi NW 12.7 mph - N/A   Clear
1:53 AM 39.9 °F 32.1 °F 32.0 °F 73% 30.16 in 10.0 mi NW 13.8 mph - N/A   Clear
2:53 AM 39.0 °F 30.6 °F 32.0 °F 76% 30.21 in 10.0 mi NW 15.0 mph - N/A   Clear
3:53 AM 39.0 °F 29.6 °F 33.1 °F 79% 30.25 in 10.0 mi NNW 18.4 mph - N/A   Clear
4:20 AM 39.0 °F 29.9 °F 33.1 °F 79% 30.26 in 10.0 mi NNW 17.3 mph - N/A   Mostly Cloudy
4:53 AM 39.0 °F 27.6 °F 33.1 °F 79% 30.27 in 10.0 mi NNW 27.6 mph 35.7 mph N/A   Mostly Cloudy
5:24 AM 35.1 °F 23.0 °F 28.0 °F 76% 30.31 in 10.0 mi NNW 24.2 mph 32.2 mph N/A   Mostly Cloudy
5:40 AM 34.0 °F 23.0 °F 28.0 °F 79% 30.33 in 10.0 mi North 18.4 mph - N/A   Mostly Cloudy
5:53 AM 33.1 °F 20.6 °F 26.1 °F 75% 30.35 in 10.0 mi NNW 23.0 mph - N/A   Mostly Cloudy
6:53 AM 30.0 °F 17.9 °F 21.0 °F 69% 30.41 in 10.0 mi North 18.4 mph - N/A   Mostly Cloudy
7:19 AM 28.0 °F 14.6 °F 19.9 °F 72% 30.43 in 10.0 mi NNW 20.7 mph 28.8 mph N/A   Scattered Clouds
7:53 AM 28.0 °F 14.6 °F 19.0 °F 69% 30.46 in 10.0 mi NNW 20.7 mph - N/A   Partly Cloudy
8:53 AM 28.0 °F 13.0 °F 17.1 °F 63% 30.50 in 10.0 mi NNW 26.5 mph 32.2 mph N/A   Partly Cloudy
9:53 AM 28.0 °F 13.3 °F 14.0 °F 56% 30.56 in 10.0 mi NNW 25.3 mph - N/A   Clear
10:53 AM 30.0 °F 16.9 °F 15.1 °F 54% 30.57 in 10.0 mi NNW 21.9 mph - N/A   Clear
11:53 AM 32.0 °F 19.5 °F 16.0 °F 52% 30.56 in 10.0 mi NNW 21.9 mph 26.5 mph N/A   Clear
12:53 PM 34.0 °F 22.7 °F 17.1 °F 50% 30.54 in 10.0 mi NNW 19.6 mph - N/A   Clear
1:53 PM 36.0 °F 25.6 °F 17.1 °F 46% 30.55 in 10.0 mi NNW 18.4 mph - N/A   Partly Cloudy
2:53 PM 37.0 °F 28.9 °F 18.0 °F 46% 30.56 in 10.0 mi NNW 12.7 mph - N/A   Partly Cloudy
3:53 PM 37.9 °F 30.5 °F 18.0 °F 45% 30.57 in 10.0 mi NNW 11.5 mph - N/A   Partly Cloudy
4:53 PM 37.0 °F 30.4 °F 18.0 °F 46% 30.60 in 10.0 mi North 9.2 mph - N/A   Partly Cloudy
5:53 PM 34.0 °F 26.6 °F 18.0 °F 52% 30.62 in 10.0 mi NNW 9.2 mph - N/A   Partly Cloudy
6:53 PM 33.1 °F 26.1 °F 19.0 °F 56% 30.63 in 10.0 mi NNW 8.1 mph - N/A   Partly Cloudy
7:53 PM 30.9 °F 22.2 °F 19.0 °F 61% 30.64 in 10.0 mi North 10.4 mph - N/A   Partly Cloudy
8:53 PM 30.0 °F 21.7 °F 19.9 °F 66% 30.65 in 10.0 mi North 9.2 mph - N/A   Partly Cloudy
9:53 PM 28.9 °F 20.4 °F 19.9 °F 69% 30.66 in 10.0 mi North 9.2 mph - N/A   Partly Cloudy
10:53 PM 30.0 °F 20.0 °F 19.0 °F 64% 30.66 in 10.0 mi NNE 12.7 mph - N/A   Partly Cloudy
11:53 PM 28.9 °F 20.4 °F 18.0 °F 64% 30.68 in 10.0 mi NNE 9.2 mph - N/A   Clear